Погода в Крайнем

Россия / Республика Крым     45°13′39″N   33°50′09″E
темп.,
°C
ветер,
м/с
пор.,
м/с
влажн.,
%
обл.,
%
осадки,
мм/ч
давл.,
гПа
погр.,
м
22 апреля, чт
чт2200:00+8ююз36940 0.0 1020108
03:00+7ююз37945 0.0 1021140
06:00+7ююз36935 0.0 1021104
09:00+12юз56695 0.0 1022651
12:00+15юз56565 0.0 10221102
15:00+15юз67555 0.0 10221029
18:00+13юз67650 0.0 1023564
21:00+9ююз37860 0.0 1023126
23 апреля, пт
пт2300:00+8ююз37860 0.0 1023126
03:00+7ююз358110 0.0 102277
06:00+7ю337596 0.0 102231
09:00+13ююз475487 0.0 1022427
12:00+17юз6742100 0.0 10201331
15:00+16юз7846100 0.0 1019748
18:00+13зюз51064100 0.0 1019366
21:00+10зюз337653 0.0 101945
24 апреля, сб
сб2400:00+9з379131 0.0 1019130
03:00+9юз359494 0.0 1019117
06:00+8ссз359782 0.0 1019140
09:00+11с447047 0.0 1020612
12:00+15сз33495 0.0 10201561
15:00+16сз54385 0.0 10201927
18:00+13сз6646100 0.0 10211036
21:00+8ссз3873100 0.0 1023217
25 апреля, вс
вс2500:00+7св3370100 0.0 102370
03:00+6св3367100 0.0 102337
06:00+5св3460100 0.0 102377
09:00+9св4648100 0.0 1023595
12:00+12св5538100 0.0 10221341
15:00+13всв4436100 0.0 10211537
18:00+12всв5543100 0.0 10201178
21:00+6в355499 0.0 102175
26 апреля, пн
пн2600:00+5в3352100 0.0 102034
03:00+4всв3456100 0.0 101953
06:00+3всв336286 0.0 101935
09:00+10всв335093 0.0 1019435
12:00+14ссз12375 0.0 10191297
15:00+15з664217 0.0 10181591
18:00+12з55501 0.0 1018933
21:00+7зюз22730 0.0 102020